TimeHST,TemperatureF,Dew PointF,Humidity,Sea Level PressureIn,VisibilityMPH,Wind Direction,Wind SpeedMPH,Gust SpeedMPH,PrecipitationIn,Events,Conditions,WindDirDegrees,DateUTC
12:53 AM,69.1,66.0,90,30.00,7.0,SE,4.6,-,0.02,Rain,Rain,140,2013-01-13 10:53:00
1:20 AM,68.0,64.0,87,30.00,4.0,WSW,6.9,-,0.07,Rain,Heavy Rain,250,2013-01-13 11:20:00
1:25 AM,66.9,64.0,90,29.99,2.5,West,9.2,-,0.10,Rain,Heavy Rain,270,2013-01-13 11:25:00
1:32 AM,66.9,64.0,90,29.99,7.0,West,5.8,-,0.13,Rain,Light Rain,260,2013-01-13 11:32:00
1:53 AM,66.9,64.0,90,29.99,7.0,West,6.9,-,0.13,Rain,Light Rain,260,2013-01-13 11:53:00
2:53 AM,68.0,64.9,90,29.98,10.0,WSW,4.6,-,0.06,Rain,Light Rain,240,2013-01-13 12:53:00
3:53 AM,66.9,64.0,90,29.97,9.0,WSW,9.2,-,0.02,Rain,Light Rain,250,2013-01-13 13:53:00
4:28 AM,66.9,63.0,87,29.97,10.0,WSW,5.8,-,0.01,,Overcast,240,2013-01-13 14:28:00
4:53 AM,68.0,64.0,87,29.97,10.0,SW,5.8,-,0.01,,Overcast,230,2013-01-13 14:53:00
5:53 AM,68.0,64.9,90,29.97,10.0,SW,5.8,-,N/A,,Partly Cloudy,230,2013-01-13 15:53:00
6:53 AM,66.9,64.0,90,29.98,10.0,SSW,4.6,-,N/A,,Scattered Clouds,200,2013-01-13 16:53:00
7:53 AM,69.1,64.9,87,29.99,10.0,SW,3.5,-,N/A,,Scattered Clouds,220,2013-01-13 17:53:00
8:53 AM,73.9,66.9,79,30.00,10.0,South,3.5,-,N/A,,Partly Cloudy,180,2013-01-13 18:53:00
9:53 AM,75.9,68.0,76,30.00,10.0,SE,9.2,-,N/A,,Mostly Cloudy,140,2013-01-13 19:53:00
10:15 AM,75.9,68.0,76,29.99,10.0,SE,6.9,-,N/A,,Mostly Cloudy,140,2013-01-13 20:15:00
10:42 AM,77.0,68.0,74,29.98,10.0,SE,6.9,-,N/A,,Scattered Clouds,140,2013-01-13 20:42:00
10:53 AM,78.1,68.0,71,29.97,10.0,ESE,10.4,-,N/A,,Mostly Cloudy,110,2013-01-13 20:53:00
11:03 AM,79.0,69.1,72,29.97,10.0,ESE,6.9,-,N/A,,Scattered Clouds,120,2013-01-13 21:03:00
11:53 AM,79.0,69.1,72,29.94,10.0,ESE,8.1,-,N/A,,Scattered Clouds,120,2013-01-13 21:53:00
12:53 PM,79.0,68.0,69,29.91,10.0,East,10.4,-,N/A,,Partly Cloudy,100,2013-01-13 22:53:00
1:53 PM,79.0,69.1,72,29.89,10.0,East,8.1,-,N/A,,Partly Cloudy,100,2013-01-13 23:53:00
2:53 PM,78.1,68.0,71,29.91,10.0,ESE,13.8,-,N/A,,Partly Cloudy,110,2013-01-14 00:53:00
3:53 PM,78.1,68.0,71,29.93,10.0,ESE,12.7,-,N/A,,Scattered Clouds,120,2013-01-14 01:53:00
4:53 PM,75.9,68.0,76,29.95,10.0,East,11.5,-,N/A,,Clear,100,2013-01-14 02:53:00
5:53 PM,73.0,66.9,81,29.98,10.0,ESE,6.9,-,N/A,,Scattered Clouds,120,2013-01-14 03:53:00
6:53 PM,73.0,66.9,81,29.98,10.0,SSE,8.1,-,N/A,,Overcast,150,2013-01-14 04:53:00
7:53 PM,72.0,66.9,84,29.99,10.0,SSE,8.1,-,N/A,,Overcast,150,2013-01-14 05:53:00
8:53 PM,71.1,66.0,84,29.98,10.0,South,8.1,-,N/A,,Clear,170,2013-01-14 06:53:00
9:53 PM,70.0,64.0,81,29.99,10.0,SSE,5.8,-,N/A,,Clear,160,2013-01-14 07:53:00
10:53 PM,68.0,64.0,87,29.99,10.0,SW,4.6,-,N/A,,Clear,220,2013-01-14 08:53:00
11:53 PM,69.1,63.0,81,29.99,10.0,South,4.6,-,N/A,,Clear,170,2013-01-14 09:53:00